Location: Godiavel Galaoual
(15.2485°N, 12.6604°W)
Time: 00:40:11
(UTC+00:00)

Explorer 7 - Pass Details

Date: 15 June 2021
Orbit: 484 x 676 km, 50.3° (Epoch: 29 July)

Event Time Altitude Azimuth Distance (km) Brightness Sun altitude
Rises 21:46:44 0° 238° (WSW) 2,990 10.8 -30.6°
Reaches altitude 10° 21:49:15 10° 248° (WSW) 2,091 10.0 -31.1°
Maximum altitude 21:53:37 33° 312° (NW) 1,124 8.8 -31.9°
Drops below altitude 10° 21:58:00 10° 16° (NNE) 2,095 10.0 -32.7°
Sets 22:00:33 0° 26° (NNE) 2,996 10.8 -33.2°
